Temp
-9 -9 -9 -10 -10 -9 -9 -10 -10 -10 -10 -11 -11 -11 -11 -11 -11 -11 -11 -11 -10 -11 -10 -10 -10 -9 -9 -9 -9 -9 -10 -10 -10 -10 -10 -10 -10 -10 -10 -10 -10 -10 -10 -10 -10 -10 -10 -10 -10
-9 -10 -10 -10 -9 -9 -10 -10 -10 -10 -10 -10 -11 -11 -11 -11 -11 -11 -11 -11 -11 -11 -10 -10 -10 -10 -9 -9 -10 -10 -11 -10 -10 -10 -10 -10 -11 -11 -10 -10 -10 -10 -11 -11 -11 -11 -10 -11 -10
-9 -10 -10 -10 -10 -9 -10 -10 -10 -10 -10 -11 -11 -11 -11 -11 -11 -11 -11 -11 -11 -11 -11 -10 -10 -10 -10 -10 -11 -10 -10 -10 -10 -11 -11 -11 -11 -11 -11 -11 -11 -11 -11 -11 -11 -10 -10 -10 -10
-9 -10 -10 -10 -9 -9 -9 -10 -10 -10 -11 -11 -11 -11 -11 -11 -11 -11 -11 -11 -11 -11 -11 -11 -10 -11 -10 -10 -10 -10 -11 -11 -11 -12 -12 -12 -11 -11 -10 -11 -11 -11 -11 -11 -11 -11 -11 -11 -11
-9 -10 -10 -10 -9 -9 -9 -10 -10 -10 -10 -10 -11 -11 -11 -11 -11 -11 -11 -11 -11 -11 -11 -11 -11 -11 -11 -11 -11 -11 -11 -11 -11 -11 -11 -11 -11 -11 -11 -11 -11 -11 -11 -11 -11 -11 -11 -11 -11
-9 -10 -10 -10 -9 -9 -9 -10 -10 -10 -10 -10 -10 -11 -11 -11 -11 -11 -11 -11 -11 -11 -11 -11 -11 -11 -11 -11 -11 -11 -11 -11 -11 -11 -11 -11 -11 -11 -11 -11 -11 -11 -11 -11 -11 -11 -11 -11 -11
-10 -10 -10 -10 -10 -9 -9 -9 -10 -10 -10 -10 -10 -11 -11 -11 -11 -11 -11 -11 -11 -11 -11 -11 -11 -11 -11 -11 -12 -12 -12 -12 -12 -12 -12 -12 -12 -12 -12 -12 -12 -12 -12 -12 -11 -11 -11 -11 -11
-10 -10 -10 -10 -10 -9 -9 -9 -9 -9 -10 -10 -10 -10 -11 -11 -11 -11 -11 -11 -11 -11 -11 -11 -11 -11 -11 -12 -12 -12 -12 -12 -12 -12 -12 -12 -12 -12 -12 -12 -12 -12 -12 -12 -12 -12 -12 -12 -11
-10 -10 -10 -10 -10 -9 -9 -9 -10 -10 -10 -10 -10 -10 -10 -11 -11 -11 -11 -11 -11 -11 -11 -11 -11 -11 -11 -12 -12 -12 -12 -12 -12 -12 -12 -12 -12 -12 -12 -12 -12 -12 -12 -12 -12 -12 -12 -12 -11
-10 -10 -10 -10 -10 -10 -10 -10 -10 -10 -10 -10 -10 -10 -10 -10 -11 -11 -11 -11 -11 -11 -11 -11 -11 -11 -11 -11 -11 -11 -11 -12 -12 -12 -12 -12 -12 -12 -12 -12 -12 -12 -11 -11 -11 -11 -11 -11 -11
-10 -10 -10 -10 -10 -10 -10 -10 -10 -10 -10 -10 -10 -10 -10 -10 -10 -11 -11 -11 -11 -11 -11 -11 -11 -11 -11 -11 -11 -11 -11 -11 -11 -11 -11 -12 -12 -12 -12 -12 -12 -12 -12 -12 -12 -12 -12 -12 -11
-9 -10 -10 -10 -10 -10 -10 -10 -10 -10 -10 -10 -10 -10 -10 -10 -10 -10 -10 -10 -11 -11 -11 -11 -11 -11 -11 -11 -11 -11 -11 -11 -11 -11 -11 -12 -12 -12 -12 -12 -12 -12 -12 -12 -12 -12 -12 -12 -11
-10 -10 -10 -10 -10 -10 -10 -10 -10 -10 -10 -10 -10 -9 -10 -10 -10 -10 -10 -10 -11 -11 -11 -11 -11 -11 -11 -11 -11 -11 -11 -11 -11 -11 -11 -11 -11 -11 -11 -12 -12 -12 -12 -12 -12 -11 -11 -11 -11
-10 -10 -10 -10 -10 -10 -10 -10 -10 -10 -10 -10 -10 -10 -9 -10 -10 -10 -10 -10 -10 -11 -11 -11 -11 -11 -11 -11 -11 -11 -11 -11 -11 -11 -11 -11 -11 -11 -11 -12 -12 -12 -11 -12 -12 -12 -12 -12 -12
-10 -10 -10 -10 -10 -10 -10 -10 -10 -10 -10 -10 -10 -10 -10 -9 -9 -10 -10 -10 -10 -11 -11 -11 -11 -11 -11 -11 -11 -11 -11 -11 -11 -11 -11 -11 -11 -11 -11 -11 -12 -12 -12 -12 -12 -12 -12 -12 -12
-10 -10 -10 -10 -10 -10 -10 -10 -10 -10 -10 -10 -10 -10 -10 -10 -10 -10 -10 -10 -10 -10 -10 -11 -11 -11 -11 -11 -11 -11 -11 -11 -11 -11 -11 -11 -11 -11 -11 -11 -11 -12 -12 -12 -12 -12 -12 -12 -12
-10 -10 -10 -10 -10 -10 -10 -10 -10 -10 -10 -10 -10 -10 -10 -10 -10 -10 -10 -10 -10 -10 -10 -11 -11 -11 -11 -11 -11 -11 -11 -11 -11 -11 -11 -11 -11 -11 -11 -11 -11 -11 -12 -12 -12 -12 -12 -12 -12
-10 -11 -11 -11 -10 -10 -10 -10 -11 -10 -10 -10 -10 -10 -11 -10 -10 -10 -10 -10 -10 -10 -11 -11 -11 -11 -11 -11 -11 -11 -11 -11 -11 -11 -11 -11 -11 -11 -11 -11 -11 -11 -11 -12 -12 -12 -12 -12 -12
-11 -11 -11 -10 -11 -11 -10 -10 -11 -11 -10 -11 -11 -11 -11 -11 -11 -11 -11 -11 -11 -11 -11 -11 -11 -11 -11 -11 -11 -11 -11 -11 -11 -11 -11 -11 -11 -11 -11 -11 -11 -11 -11 -12 -12 -12 -12 -12 -12
-11 -11 -11 -11 -11 -11 -11 -11 -11 -11 -11 -11 -11 -11 -11 -11 -11 -11 -11 -11 -11 -11 -11 -11 -11 -11 -11 -11 -11 -11 -11 -11 -11 -11 -11 -11 -11 -11 -11 -11 -11 -11 -11 -11 -11 -12 -12 -12 -12
-11 -11 -11 -11 -11 -11 -11 -11 -11 -11 -11 -11 -11 -11 -11 -11 -11 -11 -11 -11 -11 -11 -11 -11 -11 -11 -11 -11 -11 -11 -11 -11 -11 -11 -11 -11 -12 -11 -11 -11 -11 -11 -11 -12 -12 -12 -12 -12 -12
-11 -11 -11 -11 -11 -11 -11 -10 -11 -11 -11 -11 -11 -11 -11 -11 -11 -11 -11 -11 -11 -11 -11 -11 -11 -11 -11 -11 -11 -11 -11 -11 -11 -11 -11 -12 -12 -12 -11 -11 -11 -11 -11 -12 -12 -12 -12 -12 -13
-11 -11 -11 -11 -11 -11 -11 -10 -10 -11 -11 -11 -11 -11 -11 -11 -11 -11 -11 -11 -11 -11 -11 -11 -11 -11 -11 -11 -11 -11 -11 -11 -11 -11 -12 -12 -12 -12 -12 -12 -12 -12 -12 -12 -12 -12 -12 -13 -13
-12 -12 -12 -11 -11 -11 -11 -11 -10 -11 -11 -12 -12 -11 -11 -11 -11 -11 -11 -11 -11 -11 -11 -11 -11 -11 -11 -11 -11 -11 -11 -11 -11 -12 -12 -12 -12 -12 -12 -12 -12 -12 -12 -12 -13 -13 -13 -13 -13
-12 -12 -12 -12 -11 -11 -11 -11 -10 -11 -10 -11 -11 -12 -11 -11 -11 -11 -11 -11 -11 -11 -11 -11 -11 -11 -11 -12 -12 -11 -12 -12 -12 -12 -12 -12 -12 -12 -12 -12 -12 -12 -12 -12 -12 -12 -13 -14 -14
-13 -13 -13 -12 -12 -11 -11 -10 -10 -10 -11 -11 -11 -11 -11 -11 -11 -11 -11 -11 -11 -11 -11 -11 -11 -11 -11 -12 -12 -12 -12 -12 -12 -12 -12 -12 -13 -13 -12 -12 -12 -12 -12 -12 -12 -12 -13 -13 -14
-13 -13 -13 -12 -12 -11 -11 -11 -11 -11 -11 -11 -11 -11 -11 -11 -11 -11 -11 -11 -11 -11 -12 -12 -12 -12 -12 -12 -12 -12 -12 -12 -12 -12 -13 -13 -13 -13 -13 -13 -13 -13 -13 -13 -13 -13 -13 -13 -13
-13 -13 -13 -13 -12 -12 -11 -11 -11 -12 -11 -11 -11 -11 -11 -11 -11 -11 -11 -11 -11 -11 -12 -12 -12 -12 -12 -12 -12 -12 -12 -13 -13 -13 -14 -14 -14 -14 -14 -14 -14 -14 -14 -14 -14 -14 -13 -13 -14
-13 -13 -13 -13 -13 -12 -12 -12 -12 -12 -12 -11 -12 -12 -12 -12 -12 -12 -12 -12 -12 -12 -12 -12 -12 -12 -13 -13 -13 -13 -13 -14 -14 -14 -14 -15 -15 -15 -15 -15 -15 -15 -15 -15 -14 -14 -14 -14 -15
-14 -14 -14 -14 -13 -13 -13 -12 -12 -12 -12 -12 -12 -12 -13 -13 -13 -13 -13 -12 -13 -13 -12 -12 -13 -13 -13 -13 -13 -13 -14 -14 -14 -15 -14 -14 -15 -15 -15 -15 -15 -15 -15 -15 -15 -15 -15 -15 -16
Height
5846 5848 5852 5853 5855 5853 5853 5854 5854 5854 5853 5851 5851 5851 5850 5850 5850 5852 5849 5848 5847 5847 5846 5846 5846 5848 5850 5850 5853 5856 5858 5860 5861 5864 5866 5867 5869 5870 5870 5871 5871 5872 5871 5871 5871 5870 5870 5870 5870
5848 5849 5853 5852 5853 5853 5855 5855 5856 5854 5855 5854 5853 5853 5853 5853 5853 5852 5851 5850 5849 5848 5848 5847 5848 5849 5850 5851 5854 5856 5858 5859 5862 5864 5865 5866 5869 5870 5870 5870 5871 5871 5871 5870 5870 5869 5869 5869 5868
5848 5849 5852 5852 5852 5855 5856 5856 5856 5855 5856 5856 5856 5856 5856 5856 5855 5855 5854 5852 5851 5851 5850 5849 5851 5851 5852 5853 5855 5857 5858 5859 5862 5864 5866 5867 5868 5869 5870 5871 5871 5870 5870 5869 5869 5868 5868 5867 5866
5848 5850 5851 5852 5853 5856 5857 5857 5856 5858 5858 5858 5859 5859 5860 5859 5858 5858 5857 5855 5854 5853 5854 5852 5852 5853 5855 5855 5857 5856 5858 5860 5863 5864 5866 5867 5869 5870 5871 5871 5870 5870 5870 5869 5868 5867 5866 5865 5865
5848 5850 5851 5853 5854 5856 5857 5859 5859 5860 5861 5861 5860 5861 5862 5862 5861 5861 5860 5858 5857 5857 5856 5856 5855 5856 5857 5857 5858 5859 5861 5863 5865 5866 5867 5868 5869 5869 5870 5870 5869 5869 5869 5868 5867 5866 5865 5865 5864
5848 5852 5852 5855 5856 5857 5858 5860 5860 5862 5863 5862 5862 5862 5863 5863 5863 5863 5863 5862 5860 5859 5860 5859 5857 5858 5859 5861 5861 5862 5864 5866 5867 5868 5868 5868 5869 5869 5868 5868 5868 5869 5868 5867 5866 5865 5864 5864 5863
5849 5851 5854 5856 5857 5859 5858 5861 5861 5863 5864 5864 5864 5864 5864 5864 5865 5865 5864 5864 5863 5862 5862 5862 5861 5861 5862 5863 5864 5864 5866 5867 5867 5868 5868 5868 5868 5868 5867 5867 5867 5867 5866 5865 5864 5863 5863 5862 5862
5849 5851 5854 5856 5858 5860 5858 5860 5862 5862 5864 5865 5865 5865 5865 5865 5865 5865 5866 5866 5865 5864 5864 5864 5863 5864 5864 5865 5866 5866 5868 5868 5868 5868 5868 5867 5867 5866 5867 5865 5865 5865 5865 5863 5862 5862 5861 5860 5860
5848 5851 5853 5855 5858 5859 5860 5860 5861 5862 5864 5865 5866 5866 5867 5866 5866 5867 5867 5867 5867 5866 5865 5865 5865 5865 5866 5865 5867 5868 5868 5869 5868 5868 5868 5867 5866 5866 5866 5865 5864 5864 5863 5862 5861 5860 5860 5859 5858
5848 5851 5853 5855 5858 5859 5860 5861 5862 5862 5864 5865 5867 5866 5867 5867 5867 5867 5867 5867 5868 5868 5867 5867 5867 5867 5866 5866 5867 5868 5868 5868 5868 5867 5867 5867 5866 5866 5865 5865 5864 5863 5863 5861 5860 5859 5858 5857 5856
5847 5850 5851 5854 5856 5858 5860 5861 5862 5862 5863 5865 5866 5867 5867 5868 5867 5867 5868 5868 5868 5868 5868 5868 5867 5867 5867 5868 5868 5868 5869 5868 5868 5867 5867 5867 5866 5865 5865 5864 5863 5862 5861 5860 5859 5857 5856 5855 5854
5844 5848 5850 5852 5855 5857 5860 5861 5861 5862 5864 5865 5866 5867 5867 5868 5868 5868 5868 5868 5868 5868 5868 5868 5868 5868 5869 5868 5868 5868 5868 5868 5867 5867 5866 5866 5865 5864 5864 5862 5861 5860 5860 5858 5857 5855 5854 5852 5851
5841 5845 5848 5851 5853 5856 5858 5860 5860 5862 5863 5864 5865 5866 5867 5868 5869 5869 5869 5869 5869 5869 5869 5869 5869 5869 5869 5868 5868 5868 5867 5867 5866 5865 5864 5864 5863 5863 5862 5861 5859 5858 5856 5855 5853 5852 5851 5849 5848
5839 5842 5845 5848 5851 5853 5856 5858 5859 5861 5862 5863 5864 5865 5866 5867 5868 5869 5869 5869 5869 5868 5868 5868 5868 5868 5868 5868 5868 5867 5867 5866 5866 5865 5863 5863 5862 5861 5860 5859 5857 5856 5854 5852 5851 5849 5847 5846 5844
5836 5839 5842 5846 5848 5851 5853 5855 5856 5859 5860 5861 5863 5864 5864 5865 5867 5867 5868 5869 5868 5868 5868 5867 5867 5867 5867 5867 5867 5867 5866 5865 5864 5864 5862 5860 5858 5857 5856 5855 5853 5852 5850 5848 5847 5845 5843 5842 5840
5833 5835 5838 5843 5844 5848 5851 5853 5854 5856 5857 5860 5861 5862 5863 5863 5863 5865 5866 5866 5867 5867 5867 5866 5866 5866 5866 5866 5865 5864 5863 5862 5861 5860 5859 5857 5855 5853 5851 5849 5848 5847 5846 5844 5841 5840 5839 5837 5835
5828 5833 5835 5838 5841 5843 5847 5849 5850 5853 5855 5856 5859 5859 5859 5860 5861 5862 5864 5864 5864 5864 5865 5865 5865 5864 5864 5863 5862 5862 5861 5860 5859 5857 5855 5854 5852 5850 5848 5845 5843 5842 5841 5839 5836 5834 5833 5831 5829
5825 5827 5829 5833 5836 5839 5842 5844 5846 5848 5851 5852 5854 5856 5856 5857 5858 5859 5860 5861 5861 5861 5861 5861 5861 5861 5860 5859 5859 5858 5858 5857 5856 5854 5852 5850 5848 5846 5844 5842 5839 5837 5835 5833 5830 5829 5827 5825 5823
5817 5822 5826 5828 5830 5833 5835 5840 5841 5843 5847 5847 5849 5852 5853 5853 5853 5855 5855 5857 5857 5857 5857 5858 5857 5856 5857 5856 5855 5855 5854 5853 5851 5850 5848 5846 5844 5842 5840 5837 5834 5831 5829 5827 5825 5822 5820 5818 5816
5813 5817 5820 5823 5825 5827 5830 5835 5837 5837 5842 5844 5846 5846 5848 5849 5848 5850 5852 5853 5853 5853 5852 5852 5852 5852 5852 5853 5851 5851 5850 5848 5847 5845 5843 5841 5839 5837 5835 5833 5829 5825 5823 5821 5818 5815 5812 5810 5807
5809 5812 5815 5817 5819 5822 5825 5830 5831 5833 5836 5839 5841 5841 5842 5845 5845 5846 5848 5849 5849 5849 5848 5848 5847 5847 5846 5846 5845 5845 5845 5843 5841 5839 5838 5836 5833 5830 5828 5826 5822 5818 5815 5813 5810 5807 5804 5801 5799
5802 5806 5809 5811 5812 5815 5819 5823 5827 5828 5830 5832 5832 5836 5838 5839 5840 5840 5841 5843 5844 5843 5844 5844 5844 5842 5841 5840 5839 5838 5838 5837 5835 5834 5832 5829 5826 5824 5821 5818 5815 5812 5808 5805 5802 5798 5795 5792 5790
5796 5799 5801 5803 5806 5810 5814 5815 5823 5823 5824 5824 5826 5828 5831 5832 5834 5835 5835 5836 5837 5837 5837 5838 5837 5836 5836 5835 5834 5832 5831 5830 5829 5827 5825 5823 5820 5817 5813 5810 5807 5805 5801 5797 5794 5791 5787 5784 5780
5789 5792 5794 5797 5800 5804 5807 5809 5815 5817 5818 5818 5819 5822 5824 5825 5826 5827 5827 5828 5829 5830 5831 5831 5830 5829 5828 5827 5827 5825 5825 5824 5822 5819 5816 5814 5811 5808 5805 5801 5798 5794 5791 5788 5785 5782 5779 5775 5771
5781 5784 5787 5792 5793 5796 5800 5803 5806 5807 5811 5813 5813 5814 5816 5817 5818 5819 5819 5820 5821 5821 5822 5822 5821 5820 5820 5819 5818 5818 5816 5814 5812 5810 5807 5805 5802 5800 5796 5793 5790 5786 5782 5778 5774 5771 5768 5765 5762
5774 5777 5781 5782 5785 5789 5791 5795 5798 5796 5802 5803 5804 5807 5808 5809 5811 5812 5812 5812 5812 5812 5812 5812 5812 5813 5812 5811 5809 5807 5805 5803 5801 5799 5798 5795 5793 5790 5787 5784 5780 5776 5772 5769 5765 5761 5757 5753 5751
5765 5769 5772 5774 5777 5780 5783 5788 5790 5788 5787 5792 5796 5798 5800 5802 5802 5802 5802 5802 5802 5802 5802 5802 5802 5802 5801 5800 5799 5797 5795 5793 5791 5789 5787 5784 5781 5778 5775 5772 5770 5767 5762 5758 5754 5750 5747 5742 5738
5755 5760 5761 5764 5768 5771 5775 5779 5780 5779 5780 5779 5785 5789 5790 5790 5791 5792 5792 5792 5792 5792 5792 5792 5791 5790 5789 5788 5787 5785 5783 5781 5779 5777 5774 5771 5768 5765 5762 5759 5757 5754 5750 5747 5743 5739 5735 5730 5725
5745 5749 5752 5755 5758 5761 5766 5770 5770 5770 5771 5774 5772 5773 5777 5780 5780 5780 5780 5781 5782 5782 5781 5780 5779 5778 5777 5776 5775 5773 5770 5769 5767 5765 5762 5759 5757 5753 5750 5746 5743 5740 5737 5733 5730 5726 5721 5717 5713
5733 5737 5740 5740 5748 5751 5755 5759 5759 5759 5759 5760 5762 5762 5762 5764 5767 5769 5770 5770 5769 5768 5768 5767 5767 5766 5764 5763 5762 5759 5756 5754 5752 5750 5748 5746 5744 5740 5737 5735 5732 5729 5725 5720 5717 5713 5709 5705 5701
Wind_Speed
14 12 12 13 13 13 15 15 16 17 18 18 16 16 16 13 11 9 9 9 7 5 7 10 12 12 10 9 13 10 7 8 6 14 12 12 9 12 12 11 9 9 8 8 8 9 9 9 9
14 13 12 13 13 13 15 15 16 18 18 18 18 17 15 13 11 11 11 12 13 11 8 11 13 12 12 13 13 10 4 5 12 12 10 10 11 11 11 10 10 9 7 8 9 9 10 11 12
16 16 13 13 13 13 14 14 15 17 16 17 16 16 15 14 13 11 10 12 14 14 14 16 13 13 11 13 12 10 9 7 4 6 9 9 8 8 8 7 4 4 5 6 7 8 8 9 8
16 15 14 14 12 13 13 13 15 14 14 14 15 14 14 13 13 13 13 13 14 14 14 17 16 12 11 11 10 11 11 9 5 5 5 4 5 6 6 6 5 6 7 7 7 8 9 9 8
16 15 15 12 13 14 13 12 12 12 11 12 13 11 11 11 11 12 12 13 14 14 14 14 16 16 15 13 12 11 9 7 7 6 5 5 6 5 5 5 5 6 7 7 8 9 10 10 9
16 14 15 12 13 13 13 12 12 9 9 9 11 11 9 9 9 9 11 12 13 13 12 13 15 14 13 12 11 11 10 9 8 7 7 7 6 5 4 4 4 6 6 7 8 9 10 11 10
16 15 15 11 11 11 11 10 10 5 6 7 6 7 7 8 8 9 8 9 11 12 12 11 11 12 12 11 10 9 7 7 6 6 5 4 4 4 3 4 6 8 8 9 9 10 11 10 9
17 15 14 13 9 8 9 8 9 6 6 7 6 6 6 6 5 7 8 8 9 9 9 10 10 9 8 7 5 5 4 4 3 3 3 3 2 2 4 4 5 7 7 8 8 8 8 8 9
18 16 14 13 11 10 7 7 7 7 5 5 6 6 6 5 4 5 5 6 7 7 8 8 7 7 6 6 4 3 3 2 1 2 3 4 4 5 7 8 8 9 10 10 10 10 11 11 11
17 15 14 12 10 9 7 5 6 7 5 5 5 6 6 4 3 3 4 4 5 6 6 7 6 5 4 4 3 2 2 2 2 3 4 6 7 8 10 12 12 13 13 13 13 13 14 14 14
18 17 16 14 12 10 9 8 6 6 3 3 2 2 4 3 2 2 2 3 4 4 5 5 5 4 3 3 3 3 3 2 3 5 5 7 8 9 11 13 15 16 16 17 17 17 17 18 17
20 18 16 14 12 11 9 8 8 6 5 3 4 2 1 2 2 2 3 3 3 4 4 3 3 3 3 2 2 1 1 2 4 7 8 8 9 10 10 12 14 16 17 18 20 20 20 20 19
23 20 18 16 15 13 12 11 11 8 5 5 6 4 4 2 2 1 2 3 4 4 4 4 3 3 3 1 0 1 2 3 5 8 10 11 12 12 12 12 14 16 17 17 18 20 21 22 23
24 23 21 20 18 16 15 14 14 9 8 9 7 7 6 4 4 2 3 2 3 3 3 2 2 2 3 3 2 3 4 5 6 9 12 13 14 15 15 16 17 17 19 21 21 21 22 22 24
27 25 23 23 20 20 19 18 19 13 12 12 10 9 11 9 9 7 6 5 4 3 3 2 2 2 3 4 5 6 7 8 8 10 13 15 16 17 18 19 21 22 23 24 24 24 25 25 26
30 28 25 25 24 23 22 21 22 18 17 14 13 12 12 14 13 13 11 9 8 7 6 4 3 4 5 7 8 9 9 9 10 10 11 14 17 20 22 23 25 25 26 28 30 31 30 29 30
31 28 28 29 28 26 26 24 24 23 18 17 16 15 16 15 17 16 15 14 12 11 11 10 9 9 9 10 11 11 10 10 11 13 14 15 17 19 21 24 26 27 28 30 32 34 34 35 35
30 31 31 30 30 29 29 28 28 26 23 21 19 18 18 16 19 18 19 18 16 15 14 13 13 14 13 13 12 12 12 12 13 14 16 17 19 22 25 26 28 29 29 30 33 34 35 37 38
34 31 30 30 30 30 31 30 31 29 25 25 23 22 21 18 21 19 21 19 18 18 17 17 15 17 15 15 16 16 17 16 17 17 18 19 19 21 24 26 29 31 33 34 33 34 37 38 39
33 32 30 30 30 30 30 28 31 31 28 26 26 25 25 22 24 24 22 20 19 20 20 20 21 21 19 17 19 19 20 21 22 22 22 22 23 23 25 26 29 32 33 34 36 37 38 39 40
34 32 32 32 32 32 31 28 29 30 29 27 27 29 28 26 26 26 24 24 24 23 24 24 23 23 24 25 24 24 23 23 25 27 28 28 29 29 28 29 29 32 33 36 38 40 42 43 43
34 33 33 34 34 33 32 30 28 30 30 29 31 30 30 29 28 29 29 29 28 28 28 27 27 27 28 29 30 29 28 28 30 30 31 32 33 34 34 35 34 34 35 35 38 40 43 45 44
36 36 35 35 35 34 31 33 25 27 28 33 33 33 32 33 32 32 33 33 33 33 32 32 32 32 32 32 33 34 34 33 33 35 36 37 37 37 38 39 40 38 38 38 39 41 44 46 48
38 37 37 37 35 34 31 33 28 26 28 31 32 33 33 35 36 36 37 37 37 37 36 37 37 37 37 37 37 38 38 38 39 40 42 42 41 42 42 43 44 44 44 42 41 41 43 45 47
40 39 38 37 37 35 34 33 32 31 31 30 31 32 35 36 39 40 40 40 40 41 41 42 42 43 43 42 42 42 43 43 44 45 46 46 46 46 46 47 47 48 48 48 49 49 47 46 48
41 39 40 39 38 38 38 35 35 38 35 36 36 36 36 39 40 42 44 44 45 45 47 47 47 47 48 48 48 48 48 48 49 48 49 48 48 48 48 50 51 52 52 52 52 53 53 54 54
45 43 42 42 42 42 41 39 38 39 42 40 40 40 40 41 43 45 47 48 48 49 49 49 50 50 50 50 51 51 51 50 51 50 49 50 49 49 50 50 50 52 53 54 55 56 57 59 61
51 49 48 47 47 46 45 44 44 44 46 48 45 43 43 45 45 46 48 50 51 52 51 52 53 53 52 53 52 52 53 53 51 49 49 51 50 49 48 49 50 51 52 54 55 58 62 64 65
55 54 52 51 51 51 50 49 50 51 50 49 51 50 49 48 48 49 50 48 49 50 51 51 52 52 52 53 53 53 52 51 50 49 48 48 48 48 49 49 51 51 53 56 59 61 63 64 65
57 57 57 57 55 54 54 55 55 56 56 55 55 55 55 53 53 52 52 53 53 53 54 55 55 54 55 55 55 55 53 52 51 50 51 50 49 50 51 51 52 56 58 56 57 58 59 59 59
Wind_Direction
167 147 147 143 126 112 96 94 92 85 83 82 79 79 80 84 88 88 87 86 85 130 112 109 122 150 136 145 188 201 216 230 233 229 231 234 240 248 251 257 266 274 272 266 261 254 263 259 262
163 149 148 140 122 115 110 102 100 92 87 83 81 79 81 85 86 88 86 87 92 98 112 116 115 125 133 135 139 154 186 210 252 222 218 220 233 240 248 257 273 278 272 265 263 263 264 262 263
161 150 146 146 127 122 113 108 99 94 89 86 83 81 80 82 83 83 90 92 94 98 99 105 125 130 121 127 143 152 144 164 186 218 205 222 236 248 259 254 239 238 245 248 255 258 258 255 255
156 155 158 146 140 128 117 111 98 98 97 94 92 87 85 84 84 83 81 83 98 100 102 103 110 124 133 129 130 118 105 105 110 109 145 172 199 213 231 242 244 245 248 252 255 259 260 260 261
152 147 143 150 143 128 121 108 99 100 101 102 100 93 89 84 80 80 82 83 83 91 98 102 103 111 110 111 114 116 120 135 161 171 184 199 208 218 229 242 240 242 244 246 251 253 256 260 259
149 146 140 147 141 138 122 114 106 98 97 90 92 99 91 88 86 83 83 84 83 83 84 91 94 97 100 104 107 108 118 131 141 149 162 166 174 185 200 219 236 247 247 256 262 265 266 268 271
153 149 146 154 150 150 133 124 113 115 100 93 82 89 91 86 87 88 85 85 86 88 87 83 84 88 96 104 110 115 129 141 146 155 166 170 189 214 241 252 265 269 268 269 273 276 279 279 276
159 156 156 155 163 161 141 130 121 112 97 96 97 85 86 82 83 88 94 92 97 100 100 95 93 92 88 91 100 113 128 139 152 159 185 207 230 250 271 274 277 277 277 276 276 279 276 273 274
168 164 159 157 167 163 149 131 120 121 122 103 98 97 89 91 89 99 104 108 108 107 107 107 105 103 107 104 113 119 141 159 209 248 267 271 271 286 287 286 283 279 281 282 280 283 283 280 276
173 169 167 168 168 153 142 136 127 125 135 124 106 91 84 89 121 121 120 111 107 110 111 109 108 109 110 113 128 174 202 227 255 278 293 296 293 294 295 291 287 282 279 278 281 283 282 281 282
181 177 178 182 182 170 168 161 150 133 149 156 130 68 65 82 93 146 142 116 116 113 117 114 109 111 117 124 147 198 217 238 271 291 297 301 299 296 289 289 288 288 289 289 290 291 292 289 279
189 180 191 198 195 196 196 186 179 178 166 195 207 227 288 115 108 115 128 107 106 104 108 111 112 119 123 131 143 181 255 276 285 287 297 301 301 299 295 298 298 298 297 294 293 296 296 291 279
194 192 199 205 205 213 213 215 210 191 212 205 239 220 247 266 192 204 120 128 118 105 92 92 92 89 102 111 125 237 255 263 271 282 290 291 294 295 298 297 296 298 297 294 292 290 293 293 289
201 204 204 214 212 218 224 225 236 196 214 237 237 246 236 226 228 210 233 192 156 148 128 104 81 48 38 38 10 336 316 297 284 283 287 287 289 292 294 294 292 291 292 294 294 294 292 291 290
208 214 214 223 221 222 229 231 240 228 223 231 241 243 247 245 228 210 226 236 243 226 180 138 95 34 360 343 335 326 323 318 322 314 305 302 300 296 293 289 288 288 287 287 287 286 288 290 288
217 219 222 229 230 233 235 236 242 238 239 235 243 248 249 243 241 233 228 224 240 251 251 250 264 291 298 305 307 309 311 312 312 314 312 306 304 301 300 296 292 287 285 286 287 286 287 286 285
224 227 229 233 235 235 241 242 241 247 243 245 245 245 252 250 244 237 233 234 235 243 251 261 272 281 288 295 298 300 301 304 312 316 314 314 309 306 302 301 300 299 294 287 283 283 284 284 284
227 229 232 235 240 239 239 243 244 244 244 244 244 244 248 251 248 240 239 238 242 244 244 253 265 274 282 285 286 293 295 300 305 312 315 313 310 308 304 303 302 300 298 292 290 290 288 286 286
225 228 232 238 240 243 242 241 246 244 245 245 246 247 245 243 246 239 238 241 243 247 254 261 262 268 275 278 283 287 292 292 294 303 308 312 315 313 309 303 299 299 301 302 298 295 293 291 289
230 233 237 240 244 245 247 243 246 250 245 246 250 250 249 245 241 240 239 240 241 247 255 261 270 279 277 276 278 283 290 289 291 293 297 302 305 309 311 310 304 301 299 297 298 297 294 294 294
231 233 238 242 244 247 248 244 246 249 252 248 247 249 251 247 247 245 242 240 244 248 252 258 269 275 278 281 281 281 282 288 291 292 296 297 300 303 305 308 306 303 301 297 296 297 298 296 294
230 234 238 243 246 248 249 247 242 245 248 249 247 247 249 249 246 245 244 243 244 249 256 260 262 267 269 274 278 282 282 286 288 293 296 294 296 299 302 304 304 302 302 300 296 294 293 293 293
232 233 237 242 245 248 249 254 235 242 244 247 248 247 248 247 246 247 250 250 250 252 254 258 261 265 268 273 275 278 282 283 286 289 291 294 294 296 297 298 300 301 297 297 297 296 296 295 294
233 236 238 241 245 249 248 253 244 240 237 243 249 251 248 247 248 247 247 250 253 255 257 259 262 265 268 272 275 278 282 283 284 286 288 290 292 292 293 295 297 298 299 299 297 294 293 293 295
234 237 241 244 245 249 249 250 256 252 246 246 244 248 252 248 245 249 253 253 255 257 259 260 262 266 270 272 275 277 279 280 281 283 284 286 288 289 291 293 294 294 295 297 299 299 297 294 294
241 241 243 245 246 249 252 251 253 259 253 252 250 246 246 249 252 253 254 255 257 259 260 262 265 267 270 273 275 275 276 277 279 280 281 281 283 285 287 289 291 291 292 293 294 295 297 297 296
240 242 244 246 248 249 252 254 256 260 265 259 255 254 254 252 250 251 254 257 258 259 261 263 265 266 267 268 271 274 275 276 276 278 278 282 285 284 285 285 284 285 287 289 290 291 294 295 294
241 241 242 244 247 250 253 254 257 260 262 266 266 261 260 259 256 255 256 257 258 259 261 263 264 266 268 269 271 272 272 274 276 277 278 279 279 280 281 282 283 283 284 285 287 290 293 292 292
244 244 246 247 248 251 253 255 258 260 260 263 267 267 266 263 262 263 264 262 261 262 264 266 267 268 269 270 271 273 275 275 276 274 274 276 280 282 283 282 282 285 287 287 289 289 290 291 293
244 245 246 246 247 249 252 254 257 259 261 263 263 266 268 268 266 266 268 270 271 272 271 272 273 275 275 276 276 276 277 278 279 279 280 281 281 281 281 283 284 284 283 283 285 287 288 290 290